Weather History for Massena, NY

Change the Weather History Date:

Monday, January 21, 2013

  Actual Average Record
Temperature  
Mean Temperature 5 °F 14 °F  
Max Temperature 8 °F 24 °F 57 °F (1959)
Min Temperature 1 °F 4 °F -27 °F (2005)
Degree Days  
Heating Degree Days 60 51  
Month to date heating degree days 897 1058  
Since 1 July heating degree days 3683 4157  
Moisture  
Dew Point -4 °F    
Average Humidity 68    
Maximum Humidity 76    
Minimum Humidity 60    
Precipitation  
Precipitation 0.00 in 0.07 in 0.50 in (1949)
Month to date precipitation 0.59 1.54  
Year to date precipitation 0.59 1.54  
Sea Level Pressure  
Sea Level Pressure 30.04 in    
Wind  
Wind Speed 6 mph (NNW)    
Max Wind Speed 15 mph    
Max Gust Speed 21 mph    
Visibility 10 miles    
Events      
T = Trace of Precipitation, MM = Missing Value Source: NWS Daily Summary

Daily Weather History Graph

Daily Weather History Graph

Search for Another Location

Airport:

Trip Planner

Search our weather history database for the weather conditions in past years. The results will help you decide how hot, cold, wet, or windy it might be!

Date:

Astronomy

Jan. 21, 2013 Rise Set
Actual Time 7:29 AM EST 4:52 PM EST
Civil Twilight 6:57 AM EST 5:24 PM EST
Nautical Twilight 6:21 AM EST 6:00 PM EST
Astronomical Twilight 5:46 AM EST 6:35 PM EST
Moon 12:29 PM EST (1/21) 2:56 AM EST (1/21)
Length of Visible Light 10h 27m
Length of Day
9h 22m
Waxing Gibbous, 75% of the Moon is Illuminated
Jan 21
Waxing Gibbous
Jan 26
Full
Feb 3
Last Quarter
Feb 10
New
Feb 17
First Quarter

Hourly Weather History & Observations

Time (EST) Temp. Windchill Dew Point Humidity Pressure Visibility Wind Dir Wind Speed Gust Speed Precip Events Conditions
12:53 AM 7.0 °F -5.7 °F -2.9 °F 64% 30.09 in 10.0 mi WNW 8.1 mph - N/A   Clear
1:53 AM 6.1 °F -9.5 °F -4.0 °F 63% 30.09 in 10.0 mi WNW 11.5 mph 19.6 mph N/A   Clear
2:53 AM 5.0 °F -10.8 °F -4.0 °F 66% 30.11 in 10.0 mi West 11.5 mph - N/A   Clear
3:23 AM 5.0 °F -9.1 °F -4.0 °F 66% 30.07 in 10.0 mi West 9.2 mph - N/A   Mostly Cloudy
3:53 AM 5.0 °F -10.0 °F -5.1 °F 63% 30.11 in 10.0 mi West 10.4 mph - N/A   Mostly Cloudy
4:32 AM 3.2 °F -10.3 °F -5.8 °F 66% 30.07 in 10.0 mi West 8.1 mph - N/A   Scattered Clouds
4:53 AM 3.9 °F -6.9 °F -6.0 °F 64% 30.10 in 10.0 mi West 5.8 mph - N/A   Clear
5:53 AM 3.0 °F - -6.0 °F 66% 30.11 in 10.0 mi Calm Calm - N/A   Clear
6:53 AM 1.4 °F -11.3 °F -7.6 °F 66% 30.08 in 10.0 mi West 6.9 mph - N/A   Clear
7:53 AM 1.0 °F -10.3 °F -7.1 °F 69% 30.14 in 10.0 mi WSW 5.8 mph - N/A   Clear
8:53 AM 1.0 °F -8.7 °F -6.0 °F 72% 30.14 in 10.0 mi West 4.6 mph - N/A   Clear
9:53 AM 3.0 °F -6.4 °F -5.1 °F 69% 30.14 in 10.0 mi West 4.6 mph - N/A   Partly Cloudy
10:53 AM 3.0 °F -4.4 °F -5.1 °F 69% 30.12 in 10.0 mi WNW 3.5 mph - N/A   Clear
11:53 AM 3.9 °F -3.4 °F -5.1 °F 66% 30.09 in 10.0 mi NW 3.5 mph - N/A   Mostly Cloudy
12:53 PM 5.0 °F -2.1 °F -4.0 °F 66% 30.05 in 10.0 mi NNE 3.5 mph - N/A   Overcast
1:53 PM 6.1 °F - -4.0 °F 63% 30.03 in 10.0 mi Calm Calm - N/A   Mostly Cloudy
2:53 PM 7.0 °F -1.7 °F -4.0 °F 61% 30.01 in 10.0 mi NE 4.6 mph - N/A   Overcast
3:53 PM 7.0 °F -5.7 °F -5.1 °F 58% 30.01 in 10.0 mi NNE 8.1 mph - N/A   Overcast
4:53 PM 6.1 °F -6.8 °F -5.1 °F 60% 30.01 in 10.0 mi NNE 8.1 mph - N/A   Overcast
5:53 PM 5.0 °F -8.1 °F -5.1 °F 63% 30.00 in 10.0 mi NE 8.1 mph - N/A   Mostly Cloudy
6:53 PM 5.0 °F -6.9 °F -5.1 °F 63% 29.99 in 10.0 mi NE 6.9 mph - N/A   Mostly Cloudy
7:53 PM 5.0 °F -6.9 °F -4.0 °F 66% 29.99 in 9.0 mi NE 6.9 mph - N/A   Overcast
8:53 PM 6.1 °F -2.8 °F -2.9 °F 67% 29.98 in 10.0 mi NNE 4.6 mph - N/A   Overcast
9:53 PM 7.0 °F -3.3 °F -0.9 °F 70% 29.96 in 7.0 mi East 5.8 mph - N/A   Overcast
10:32 PM 6.8 °F -5.9 °F -0.4 °F 72% 29.91 in 6.0 mi ENE 8.1 mph - N/A   Haze
10:45 PM 6.8 °F -8.6 °F -0.4 °F 72% 29.90 in 10.0 mi East 11.5 mph - N/A   Mostly Cloudy
10:53 PM 6.8 °F -6.9 °F -0.4 °F 72% 29.90 in 10.0 mi ENE 9.2 mph - N/A   Mostly Cloudy
11:53 PM 5.0 °F -5.6 °F -0.9 °F 76% 29.92 in 10.0 mi NE 5.8 mph - N/A   Overcast